Regional Weather Roundup
Issued by NWS Northern Indiana

Home | Current Version | Previous Version | Text Only | Print | Product List | Glossary Off
Versions: 1 2 3 4 5 6 7 8 9 10 11 12 13 14 15 16 17 18 19 20 21 22 23 24 25 26 27 28 29 30 31 32 33 34 35 36 37 38 39 40 41 42 43 44 45 46 47 48 49 50

000
ASUS43 KIWX 211010
RWRIWX

KIWX WEATHER ROUNDUP
NATIONAL WEATHER SERVICE NORTHERN INDIANA
500 AM EST TUE FEB 21 2017

NOTE: "FAIR" INDICATES FEW OR NO CLOUDS BELOW 12,000 FEET WITH NO
SIGNIFICANT WEATHER AND/OR OBSTRUCTIONS TO VISIBILITY.

* THESE STATIONS ARE NOT UNDER NWS QUALITY CONTROL. THEY ALSO MAY NOT
  REPORT WEATHER SUCH AS PRECIPITATION OR FOG.

INZ001>027-211100-
NORTHERN INDIANA

CITY           SKY/WX    TMP DP  RH WIND       PRES   REMARKS
VALPARAISO     CLOUDY    55  48  77 S7        29.94S
MICHIGAN CITY* CLOUDY    55  46  71 S9        29.94S
LAPORTE*       LGT RAIN  53  46  79 S3        29.94S
KNOX*          CLOUDY    54  28  37 S9        29.93F
SOUTH BEND     CLOUDY    53  44  71 S6        29.95F
GOSHEN         CLOUDY    50  40  68 SE5       29.95S
MONTICELLO*    CLOUDY    53  46  77 CALM      29.94S
LOGANSPORT*    CLOUDY    50  45  81 SE6       29.96S
ROCHESTER*     CLOUDY    54  45  71 S7        29.96S
WARSAW*        CLOUDY    52  41  66 S3        29.95F
ANGOLA*        CLEAR     43  37  81 S6        29.97S
FORT WAYNE     CLOUDY    47  40  76 S3        29.98S
HUNTINGTON*    PTCLDY    45  41  85 CALM      29.97S
PERU/GRISSOM   CLOUDY    51  46  82 S7        29.94F
MARION*        CLOUDY    48  40  76 S3        29.98S

$$
INZ028>050-211100-
CENTRAL INDIANA

CITY           SKY/WX    TMP DP  RH WIND       PRES   REMARKS
LAFAYETTE      CLOUDY    55  47  74 CALM      29.94S
KOKOMO*        CLOUDY    51  44  77 S6        29.97F
MUNCIE*        CLOUDY    55  40  56 S8        29.98S
INDIANAPOLIS   CLOUDY    55  45  68 SE6       29.97S

$$
MIZ043>046-050>051-056>058-064>065-071>073-077>080-211100-
SOUTHWEST LOWER MICHIGAN

CITY           SKY/WX    TMP DP  RH WIND       PRES   REMARKS
BATTLE CREEK   CLOUDY    48  39  71 S13       29.95F
BENTON HARBOR  CLOUDY    55  43  63 S8        29.92S
COLDWATER*     CLOUDY    45  37  73 CALM      29.96S
HILLSDALE*     CLOUDY    41  36  81 S7        29.96F
HOLLAND        CLOUDY    54  43  66 S12       29.91R
GRAND RAPIDS   CLOUDY    51  39  63 S16       29.91S
KALAMAZOO      CLOUDY    48  37  65 S5        29.94F
STURGIS*       CLOUDY    47  40  74 S7        29.95S
THREE RIVERS*  FAIR      47  39  74 S6        29.95S

$$
OHZ001>008-015>018-024>025-211100-
NORTHWEST OHIO

CITY           SKY/WX    TMP DP  RH WIND       PRES   REMARKS
WAUSEON*       FAIR      37  36  93 CALM      29.99S
DEFIANCE       CLOUDY    38  34  85 CALM      29.99S
FINDLAY        PTCLDY    50  38  63 SE12      29.99F
TOLEDO EXPRESS CLOUDY    37  34  89 E5        29.98F
TOLEDO METCALF PTCLDY    37  35  92 CALM      30.00F
LIMA           CLOUDY    51  41  68 S12       29.99F

$$
AND FOR LAKE MICHIGAN COASTAL AND OPEN LAKE BUOY OBSERVATIONS

STATION/POSITION TEMP    WIND        PRES    VSBY  WAVE
                 AIR SEA DIR/SP/G                  HT/PER
                 (F)     (DEG/KT/KT) (MB)    (MI)  (FT/S)
CALUMET HARBOR    57     210/  8/ 10 1012.6F
MICHIGAN CITY     57     160/ 16/ 20   N/A
BURNS HARBOR      55     190/ 12/ 16 1013.5F

$$
&&




USA.gov is the U.S. government's official web portal to all federal, state and local government web resources and services.